DKH1258 ZBAA-ZSPD

Flight info

Callsign DKH1258
Flight time N/A
Altitude 33100
Route ELKU2G/18L ELKUR W40 YQG W142 DALIM A593 DPX A470 DALNU W166 ZJ W167 SASAN R343 EKIMU
Aircraft A21N/M-SDE3FGHIRWY/LB1

Departure

Time N/A
Airport Beijing Capital International Airport (ZBAA)

Arrival

Time 2026-05-04 09:07
Airport Shanghai Pudong International Airport (ZSPD)
Time Latitude Longitude Altitude Speed Heading
2026-05-04 09:01 31.38991 121.73122 3036 ft 179 kts 164°
2026-05-04 09:01 31.37748 121.73492 3011 ft 185 kts 163°
2026-05-04 09:01 31.36517 121.73888 3001 ft 186 kts 162°
2026-05-04 09:01 31.35259 121.74325 2999 ft 186 kts 161°
2026-05-04 09:02 31.34038 121.74771 2998 ft 186 kts 161°
2026-05-04 09:02 31.32808 121.75235 3044 ft 185 kts 160°
2026-05-04 09:02 31.31578 121.75705 3100 ft 186 kts 160°
2026-05-04 09:02 31.30347 121.76177 2943 ft 186 kts 160°
2026-05-04 09:03 31.29115 121.76650 2693 ft 185 kts 160°
2026-05-04 09:03 31.27913 121.77109 2486 ft 174 kts 160°
2026-05-04 09:03 31.26826 121.77522 2236 ft 157 kts 160°
2026-05-04 09:03 31.25802 121.77911 2010 ft 151 kts 160°
2026-05-04 09:04 31.24808 121.78291 1814 ft 150 kts 160°
2026-05-04 09:04 31.23809 121.78670 1618 ft 150 kts 160°
2026-05-04 09:04 31.22814 121.79047 1423 ft 149 kts 160°
2026-05-04 09:04 31.21831 121.79418 1229 ft 149 kts 160°
2026-05-04 09:05 31.20842 121.79792 1031 ft 148 kts 160°
2026-05-04 09:05 31.19858 121.80164 832 ft 148 kts 159°
2026-05-04 09:05 31.18876 121.80534 632 ft 148 kts 159°
2026-05-04 09:05 31.17910 121.80898 451 ft 148 kts 159°
2026-05-04 09:06 31.16935 121.81263 245 ft 146 kts 159°
2026-05-04 09:07 31.13912 121.82281 22 ft 6 kts 189°
2026-05-04 09:08 31.13860 121.82271 22 ft 8 kts 189°
2026-05-04 09:08 31.13789 121.82261 22 ft 11 kts 181°
2026-05-04 09:08 31.13717 121.82269 22 ft 7 kts 179°
2026-05-04 09:08 31.13671 121.82246 22 ft 8 kts 232°
2026-05-04 09:09 31.13646 121.82175 22 ft 11 kts 251°
2026-05-04 09:09 31.13616 121.82073 22 ft 15 kts 252°
2026-05-04 09:09 31.13589 121.81976 22 ft 13 kts 252°
2026-05-04 09:09 31.13585 121.81960 22 ft 0 kts 252°
2026-05-04 09:10 31.13580 121.81941 22 ft 4 kts 252°
2026-05-04 09:10 31.13566 121.81889 22 ft 9 kts 252°
2026-05-04 09:10 31.13540 121.81793 22 ft 14 kts 252°
2026-05-04 09:10 31.13506 121.81677 22 ft 15 kts 251°
2026-05-04 09:11 31.13494 121.81559 22 ft 14 kts 297°
2026-05-04 09:11 31.13584 121.81512 22 ft 14 kts 343°
2026-05-04 09:11 31.13680 121.81477 22 ft 14 kts 343°
2026-05-04 09:11 31.13775 121.81439 22 ft 14 kts 341°
2026-05-04 09:12 31.13870 121.81403 22 ft 14 kts 342°
2026-05-04 09:12 31.13967 121.81366 22 ft 15 kts 342°
2026-05-04 09:14 31.14613 121.81123 22 ft 17 kts 342°
2026-05-04 09:14 31.14735 121.81079 22 ft 19 kts 343°
2026-05-04 09:14 31.14830 121.81042 22 ft 7 kts 341°
2026-05-04 09:14 31.14852 121.81028 22 ft 3 kts 309°
2026-05-04 09:15 31.14854 121.81001 22 ft 4 kts 270°
2026-05-04 09:15 31.14845 121.80969 22 ft 4 kts 246°
2026-05-04 09:15 31.14833 121.80933 22 ft 2 kts 251°
2026-05-04 09:15 31.14832 121.80928 22 ft 0 kts 251°
2026-05-04 09:17 31.14830 121.80921 22 ft 0 kts 251°